This is the latest recevied weather packets stored in our database for station/object OK1FRN-6. If no packets are shown the sender has not sent any weather packets the latest 1 day(s).
| Time | Temp. | Humidity | Pressure | Rain* | Wind** | Luminosity | Snow |
|---|---|---|---|---|---|---|---|
| 1778099771 | 13.89° C | 84% | 1007.4 hPa | - | - | - | - |
| 1778097934 | 14.44° C | 81% | 1008.1 hPa | - | - | - | - |
| 1778096097 | 15° C | 76% | 1006.9 hPa | - | - | - | - |
| 1778094260 | 15.56° C | 71% | 1006 hPa | - | - | - | - |
| 1778091503 | 16.67° C | 69% | 1005.5 hPa | - | - | - | - |
| 1778088439 | 17.78° C | 68% | 1005 hPa | - | - | - | - |
| 1778087826 | 18.33° C | 68% | 1005.1 hPa | - | - | - | - |
| 1778086294 | 18.33° C | 69% | 1004.9 hPa | - | - | - | - |
| 1778085681 | 18.33° C | 69% | 1005 hPa | - | - | - | - |
| 1778084455 | 18.33° C | 70% | 1005.2 hPa | - | - | - | - |
| 1778083229 | 18.33° C | 71% | 1005.4 hPa | - | - | - | - |
| 1778082003 | 18.33° C | 71% | 1005.6 hPa | - | - | - | - |
| 1778081390 | 18.89° C | 70% | 1005.7 hPa | - | - | - | - |
| 1778080777 | 18.89° C | 72% | 1005.5 hPa | - | - | - | - |
| 1778078018 | 19.44° C | 61% | 1006.2 hPa | - | - | - | - |
| 1778077712 | 20° C | 60% | 1006.1 hPa | - | - | - | - |
| 1778074644 | 22.22° C | 44% | 1006.1 hPa | - | - | - | - |
| 1778073417 | 22.78° C | 42% | 1006.3 hPa | - | - | - | - |
| 1778073110 | 22.78° C | 41% | 1006.4 hPa | - | - | - | - |
| 1778072803 | 22.78° C | 41% | 1006.4 hPa | - | - | - | - |
| 1778072496 | 23.33° C | 41% | 1006.5 hPa | - | - | - | - |
| 1778071268 | 23.89° C | 41% | 1006.6 hPa | - | - | - | - |
| 1778070654 | 23.89° C | 42% | 1006.8 hPa | - | - | - | - |
| 1778070347 | 23.89° C | 42% | 1006.9 hPa | - | - | - | - |
| 1778070040 | 23.33° C | 41% | 1007 hPa | - | - | - | - |
* Rain since midnight (hover to see other rain measurements)
** Current wind speed in m/s (hover to see current wind gust speed)